Tracking 28081 objects as of 26-Sep-2023
HD Live streaming from Space Station
objects crossing your sky now

DMSP 5D-2 F11 DEB

Track DMSP 5D-2 F11 DEB now!
10-day predictions


NORAD ID: 28312
Int'l Code: 1991-082Z
Perigee: 814.7 km
Apogee: 832.7 km
Inclination: 98.7 °
Period: 101.2 minutes
Semi major axis: 7194 km
RCS: 0.0099 m2 (small)
Launch date: November 28, 1991
Source: United States (US)
Launch site: AIR FORCE WESTERN TEST RANGE (AFWTR)

Note: This is SATELLITE DEBRIS
Your satellite tracking list
Your tracking list is empty




NASA's NSSDC Master Catalog

Two Line Element Set (TLE):
1 28312U 91082Z   23268.05482495  .00001398  00000-0  64439-3 0  9994
2 28312  98.7143 299.2438 0012563 123.2094 237.0290 14.22604780  5412
Source of the keplerian elements: AFSPC